Orbital Elements at Epoch 2459000.5 (2020-May-31.0) TDB
Reference: JPL 14 (heliocentric ecliptic J2000)
Element | Value | Uncertainty (1-sigma) | Units |
e | .1935885902764258 | 5.6849e-08 | |
a | 2.466926453925168 | 1.2158e-08 | au |
q | 1.989357639394172 | 1.3938e-07 | au |
i | 2.185590697268224 | 6.4286e-06 | deg |
node | 185.5842083377295 | 0.00011867 | deg |
peri | 187.2933575082804 | 0.00011943 | deg |
M | 283.2526014249316 | 1.7721e-05 | deg |
tp | 2459302.212909495352 (2021-Mar-28.71290950) | 7.1454e-05 | TDB |
period | 1415.248587378325 3.87 | 1.0462e-05 2.864e-08 | d yr |
n | .2543722729777682 | 1.8804e-09 | deg/d |
Q | 2.944495268456163 | 1.4511e-08 | au |
|
| | Orbit Determination Parameters
Additional Information
|